Weather History for Hof Plauen, Germany

Change the Weather History Date:

Wednesday, November 21, 2012

  Actual Average Record
Temperature  
Mean Temperature 39 °F -  
Max Temperature 41 °F 36 °F 51 °F (2011)
Min Temperature 37 °F 30 °F 17 °F (1998)
Degree Days  
Heating Degree Days 26    
Moisture  
Dew Point 36 °F    
Average Humidity 91    
Maximum Humidity 100    
Minimum Humidity 81    
Precipitation  
Precipitation 0.00 in - - ()
Sea Level Pressure  
Sea Level Pressure 30.08 in    
Wind  
Wind Speed 9 mph ()    
Max Wind Speed 17 mph    
Max Gust Speed -    
Visibility 2.3 miles    
Events      
Averages and records for this station are not official NWS values.
T = Trace of Precipitation, MM = Missing Value Source: Averaged Metar Reports

Daily Weather History Graph

Daily Weather History Graph

Search for Another Location

Airport:

Trip Planner

Search our weather history database for the weather conditions in past years. The results will help you decide how hot, cold, wet, or windy it might be!

Date:

Astronomy

Nov. 21, 2012 Rise Set
Actual Time 7:36 AM CET 4:20 PM CET
Civil Twilight 6:59 AM CET 4:56 PM CET
Nautical Twilight 6:19 AM CET 5:36 PM CET
Astronomical Twilight 5:40 AM CET 6:15 PM CET
Moon 1:04 PM CET (11/21) No Moon Set
Length of Visible Light 9h 57m
Length of Day
8h 43m
First Quarter, 59% of the Moon is Illuminated
Nov 21
First Quarter
Nov 28
Full
Dec 6
Last Quarter
Dec 13
New
Dec 20
First Quarter

Hourly Weather History & Observations

Time (CET) Temp. Windchill Dew Point Humidity Pressure Visibility Wind Dir Wind Speed Gust Speed Precip Events Conditions
12:00 AM 37 °F - 37 °F 98% 30.16 in 3 mi South 6.7 mph - -   Mist
1:00 AM 37 °F - 37 °F 100% 30.15 in 2 mi South 6.7 mph - -   Mist
2:00 AM 37 °F - 37 °F 100% 30.14 in 2 mi SSE 6.7 mph - -   Mist
3:00 AM 37 °F - 37 °F 100% 30.14 in 1 mi SSE 6.7 mph - -   Mist
5:00 AM 38 °F - 38 °F 100% 30.12 in 1 mi SSE 4.5 mph - -   Mist
6:00 AM 38 °F - 38 °F 99% 30.11 in 2 mi SSE 8.9 mph - -   Mist
7:00 AM 38 °F - 38 °F 99% 30.10 in 2 mi SSE 8.9 mph - -   Mist
7:50 AM 37.4 °F 30.3 °F 35.6 °F 93% 30.04 in 0.9 mi SE 10.4 mph - N/A   Overcast
8:00 AM 38 °F - 38 °F 100% 30.10 in 1 mi SSE 8.9 mph - -   Mist
8:20 AM 37.4 °F 29.8 °F 35.6 °F 93% 30.06 in 1.0 mi SSE 11.5 mph - N/A   Mostly Cloudy
8:50 AM 37.4 °F 30.8 °F 35.6 °F 93% 30.06 in 1.1 mi SSE 9.2 mph - N/A   Mostly Cloudy
9:00 AM 38 °F - 38 °F 100% 30.11 in 2 mi SSE 8.9 mph - -   Mist
9:20 AM 37.4 °F 30.8 °F 35.6 °F 93% 30.06 in 0.9 mi SSE 9.2 mph - N/A   Mostly Cloudy
9:50 AM 37.4 °F 28.9 °F 35.6 °F 93% 30.06 in 1.1 mi SSE 13.8 mph - N/A   Overcast
10:20 AM 39.2 °F 32.0 °F 35.6 °F 87% 30.06 in 1.6 mi SSE 11.5 mph - N/A   Overcast
10:50 AM 39.2 °F 32.0 °F 35.6 °F 87% 30.06 in 1.7 mi SSE 11.5 mph - N/A   Overcast
11:00 AM 39 °F - 37 °F 92% 30.11 in 3 mi SSE 8.9 mph - -   Mist
11:20 AM 39.2 °F 32.0 °F 35.6 °F 87% 30.04 in 1.9 mi SSE 11.5 mph - N/A   Overcast
11:50 AM 39.2 °F 32.5 °F 35.6 °F 87% 30.04 in 1.9 mi SSE 10.4 mph - N/A   Overcast
12:00 PM 40 °F - 38 °F 88% 30.08 in 4 mi SSE 8.9 mph - -   Mist
12:20 PM 39.2 °F 32.0 °F 35.6 °F 87% 30.04 in 2.8 mi SSE 11.5 mph - N/A   Mostly Cloudy
12:50 PM 39.2 °F 32.5 °F 35.6 °F 87% 30.04 in 2.5 mi SSE 10.4 mph - N/A   Mostly Cloudy
1:00 PM 40 °F - 38 °F 90% 30.07 in 4 mi SSE 8.9 mph - -   Mist
1:20 PM 39.2 °F 32.0 °F 35.6 °F 87% 30.04 in - SSE 11.5 mph - N/A   Overcast
1:50 PM 41.0 °F 34.3 °F 35.6 °F 81% 30.04 in - SSE 11.5 mph - N/A   Overcast
2:00 PM 40 °F - 38 °F 90% 30.07 in 4 mi SSE 8.9 mph - -   Mist
2:20 PM 39.2 °F 33.0 °F 35.6 °F 87% 30.04 in 2.8 mi SSE 9.2 mph - N/A   Overcast
3:00 PM 40 °F - 38 °F 90% 30.07 in 3 mi South 6.7 mph - -   Mist
3:20 PM 39.2 °F 32.5 °F 35.6 °F 87% 30.01 in 3.1 mi SSE 10.4 mph - N/A   Overcast
3:50 PM 39.2 °F 33.6 °F 35.6 °F 87% 30.04 in 3.1 mi SSE 8.1 mph - N/A   Overcast
4:20 PM 39.2 °F 34.2 °F 35.6 °F 87% 30.04 in 3.1 mi SSE 6.9 mph - N/A   Overcast
4:50 PM 39.2 °F 33.6 °F 35.6 °F 87% 30.04 in 3.7 mi South 8.1 mph - N/A   Overcast
5:00 PM 40 °F - 38 °F 88% 30.08 in 3 mi South 8.9 mph - -   Mist
5:20 PM 39.2 °F 34.2 °F 35.6 °F 87% 30.04 in 3.7 mi South 6.9 mph - N/A   Overcast
5:50 PM 39.2 °F 35.0 °F 35.6 °F 87% 30.04 in - SSE 5.8 mph - N/A   Overcast
6:00 PM 39 °F - 37 °F 92% 30.09 in 3 mi South 6.7 mph - -   Mist
6:20 PM 39.2 °F 35.0 °F 35.6 °F 87% 30.04 in 3.7 mi South 5.8 mph - N/A   Overcast
6:50 PM 37.4 °F 29.8 °F 33.8 °F 87% 30.04 in 3.1 mi SSW 11.5 mph - N/A   Overcast
7:20 PM 37.4 °F 29.3 °F 35.6 °F 93% 30.06 in - SSW 12.7 mph - N/A   Overcast
7:50 PM 37.4 °F 28.9 °F 33.8 °F 87% 30.06 in - South 13.8 mph - N/A   Overcast
8:00 PM 37 °F - 36 °F 97% 30.13 in 2 mi SSW 8.9 mph - -   Mist
8:20 PM 37.4 °F 30.8 °F 33.8 °F 87% 30.06 in - South 9.2 mph - N/A   Overcast
8:50 PM 37.4 °F 30.8 °F 33.8 °F 87% 30.06 in - South 9.2 mph - N/A   Overcast
9:00 PM 37 °F - 36 °F 97% 30.12 in 2 mi SSW 15.7 mph - -   Mist
9:20 PM 37.4 °F 28.5 °F 35.6 °F 93% 30.06 in 1.2 mi SSW 15.0 mph - N/A   Overcast
9:50 PM 37.4 °F 27.8 °F 35.6 °F 93% 30.09 in - SSW 17.3 mph - N/A   Overcast
10:20 PM 37.4 °F 27.8 °F 35.6 °F 93% 30.09 in 1.7 mi SW 17.3 mph - N/A   Overcast
10:50 PM 37.4 °F 29.3 °F 35.6 °F 93% 30.09 in - SSW 12.7 mph - N/A   Overcast
11:00 PM 37 °F - 36 °F 97% 30.16 in 2 mi SW 11.2 mph - -   Mist
11:20 PM 37.4 °F 28.9 °F 33.8 °F 87% 30.09 in - SSW 13.8 mph - N/A   Overcast
11:50 PM 37.4 °F 28.9 °F 35.6 °F 93% 30.12 in - SSW 13.8 mph - N/A   Overcast